sat.trackr.live / text

‹ back to catalog

STARLINK-6074

NORAD 56553 · 2023-065BC

PAYLOAD ACTIVE UNKNOWN

§ Identity

Operator
Country
US
Launch date
2023-05-14
Launch site
AFETR
Launch vehicle
Mass (kg)
RCS (m²)

Purposes: comms

External: N2YO · Heavens-Above · Gunter

§ Orbital elements

Epoch: 2026-05-25T01:21:59.874336Z

Period
94.27 min
Inclination
43.0029°
Eccentricity
0.0001101
Mean motion
15.27575004 rev/d
Perigee alt
482.3 km
Apogee alt
483.8 km
Semi-major
6,861.2 km
B*
1.1955e-5
RAAN
152.1132°
Arg perigee
309.8432°
Mean anomaly
50.2323°
Rev number
16,815

§ Raw data

STARLINK-60741 56553U 23065BC  26145.05694299  .00000067  00000+0  11955-4 0  99992 56553  43.0029 152.1132 0001101 309.8432  50.2323 15.27575004168153

JSON: /api/v1/satellites/56553 · /tle

For live sub-satellite position, see the globe view (requires WebGL).

§ Visibility from observer

Set your observer location to see the next 7 days of passes ≥ 10°. The values pass through the URL so the page stays shareable.

No JS? Fill the form by hand. The geolocation button needs JavaScript.